Time,TemperatureF,DewpointF,PressureIn,WindDirection,WindDirectionDegrees,WindSpeedMPH,WindSpeedGustMPH,Humidity,HourlyPrecipIn,Conditions,Clouds,dailyrainin,SoftwareType,DateUTC
2013-10-08 00:01:00,48.4,44.1,29.95,WSW,248,4.6,4.6,85,0.00,RA,,0.00,WeatherDisplay:10.37,2013-10-08 04:01:00,
2013-10-08 00:02:00,48.4,44.1,29.95,WSW,248,4.6,4.6,85,0.00,RA,,0.00,WeatherDisplay:10.37,2013-10-08 04:02:00,
2013-10-08 00:03:00,48.4,44.1,29.95,West,270,3.7,3.7,85,0.00,RA,,0.00,WeatherDisplay:10.37,2013-10-08 04:03:00,
2013-10-08 00:05:00,48.6,44.3,29.95,West,270,4.6,4.6,85,0.00,RA,,0.00,WeatherDisplay:10.37,2013-10-08 04:05:00,
2013-10-08 00:10:00,48.6,44.3,29.95,WSW,248,3.5,3.5,85,0.00,RA,,0.00,WeatherDisplay:10.37,2013-10-08 04:10:00,
2013-10-08 00:15:00,48.6,44.3,29.95,West,270,4.6,4.6,85,0.00,CLR,,0.00,WeatherDisplay:10.37,2013-10-08 04:15:00,
2013-10-08 00:20:00,48.6,44.3,29.95,SW,225,4.2,4.2,85,0.00,CLR,,0.00,WeatherDisplay:10.37,2013-10-08 04:20:00,
2013-10-08 00:25:00,48.4,44.1,29.95,WSW,248,3.5,3.5,85,0.00,CLR,,0.00,WeatherDisplay:10.37,2013-10-08 04:25:00,
2013-10-08 00:30:00,48.2,43.9,29.95,WSW,248,2.7,2.7,85,0.00,CLR,,0.00,WeatherDisplay:10.37,2013-10-08 04:30:00,
2013-10-08 00:35:00,48.2,44.2,29.95,WSW,248,2.3,2.3,86,0.00,CLR,,0.00,WeatherDisplay:10.37,2013-10-08 04:35:00,
2013-10-08 00:40:00,47.8,43.8,29.95,WSW,248,2.3,2.3,86,0.00,CLR,,0.00,WeatherDisplay:10.37,2013-10-08 04:40:00,
2013-10-08 00:45:00,47.7,43.7,29.95,SW,225,2.3,2.3,86,0.00,CLR,,0.00,WeatherDisplay:10.37,2013-10-08 04:45:00,
2013-10-08 00:50:00,47.1,43.4,29.95,SW,225,2.7,2.7,87,0.00,CLR,,0.00,WeatherDisplay:10.37,2013-10-08 04:50:00,
2013-10-08 00:55:00,47.1,43.4,29.95,SSW,202,2.7,2.7,87,0.00,CLR,,0.00,WeatherDisplay:10.37,2013-10-08 04:55:00,
2013-10-08 01:00:00,46.6,42.9,29.95,WSW,248,2.3,2.5,87,0.00,CLR,,0.00,WeatherDisplay:10.37,2013-10-08 05:00:00,
2013-10-08 01:05:00,46.0,42.6,29.95,WSW,248,0.0,0.0,88,0.00,CLR,,0.00,WeatherDisplay:10.37,2013-10-08 05:05:00,
2013-10-08 01:10:00,45.3,42.0,29.95,SSW,202,1.1,1.1,88,0.00,CLR,,0.00,WeatherDisplay:10.37,2013-10-08 05:10:00,
2013-10-08 01:15:00,45.3,42.0,29.95,SSE,158,0.0,0.0,88,0.00,CLR,,0.00,WeatherDisplay:10.37,2013-10-08 05:15:00,
2013-10-08 01:20:00,45.1,42.1,29.95,SSE,158,0.0,0.0,89,0.00,CLR,,0.00,WeatherDisplay:10.37,2013-10-08 05:20:00,
2013-10-08 01:25:00,44.8,41.8,29.96,SSE,158,0.0,0.0,89,0.00,CLR,,0.00,WeatherDisplay:10.37,2013-10-08 05:25:00,
2013-10-08 01:30:00,44.8,41.8,29.96,SW,225,0.0,0.0,89,0.00,CLR,,0.00,WeatherDisplay:10.37,2013-10-08 05:30:00,
2013-10-08 01:35:00,44.6,41.6,29.95,SSW,202,0.0,0.0,89,0.00,CLR,,0.00,WeatherDisplay:10.37,2013-10-08 05:35:00,
2013-10-08 01:40:00,44.8,42.0,29.95,SW,225,0.0,0.0,90,0.00,CLR,,0.00,WeatherDisplay:10.37,2013-10-08 05:40:00,
2013-10-08 01:45:00,44.2,41.5,29.95,SSW,202,0.0,0.0,90,0.00,CLR,,0.00,WeatherDisplay:10.37,2013-10-08 05:45:00,
2013-10-08 01:50:00,44.1,41.4,29.96,WSW,248,0.0,0.0,90,0.00,CLR,,0.00,WeatherDisplay:10.37,2013-10-08 05:50:00,
2013-10-08 01:55:00,43.9,41.2,29.96,WSW,248,0.0,0.0,90,0.00,CLR,,0.00,WeatherDisplay:10.37,2013-10-08 05:55:00,
2013-10-08 02:00:00,43.9,41.4,29.97,WSW,248,0.0,0.0,91,0.00,CLR,,0.00,WeatherDisplay:10.37,2013-10-08 06:00:00,
2013-10-08 02:05:00,43.7,41.2,29.97,SW,225,2.3,0.0,91,0.00,CLR,,0.00,WeatherDisplay:10.37,2013-10-08 06:05:00,
2013-10-08 02:10:00,43.5,41.3,29.97,SSW,202,2.3,0.0,92,0.00,CLR,,0.00,WeatherDisplay:10.37,2013-10-08 06:10:00,
2013-10-08 02:15:00,43.5,41.3,29.97,SW,225,0.0,0.0,92,0.00,CLR,,0.00,WeatherDisplay:10.37,2013-10-08 06:15:00,
2013-10-08 02:20:00,43.5,41.3,29.97,SW,225,2.3,2.3,92,0.00,CLR,,0.00,WeatherDisplay:10.37,2013-10-08 06:20:00,
2013-10-08 02:25:00,43.3,41.1,29.96,SW,225,0.0,0.0,92,0.00,CLR,,0.00,WeatherDisplay:10.37,2013-10-08 06:25:00,
2013-10-08 02:30:00,43.3,41.4,29.96,West,270,0.0,0.0,93,0.00,CLR,,0.00,WeatherDisplay:10.37,2013-10-08 06:30:00,
2013-10-08 02:35:00,43.5,41.6,29.97,West,270,0.0,0.0,93,0.00,CLR,,0.00,WeatherDisplay:10.37,2013-10-08 06:35:00,
2013-10-08 02:40:00,43.5,41.6,29.97,SW,225,0.0,0.0,93,0.00,CLR,,0.00,WeatherDisplay:10.37,2013-10-08 06:40:00,
2013-10-08 02:45:00,43.5,41.6,29.97,SW,225,0.0,0.0,93,0.00,CLR,,0.00,WeatherDisplay:10.37,2013-10-08 06:45:00,
2013-10-08 02:50:00,43.5,41.6,29.97,SW,225,0.0,0.0,93,0.00,CLR,,0.00,WeatherDisplay:10.37,2013-10-08 06:50:00,
2013-10-08 02:55:00,43.7,41.8,29.97,SW,225,0.0,0.0,93,0.00,CLR,,0.00,WeatherDisplay:10.37,2013-10-08 06:55:00,
2013-10-08 03:00:00,43.7,41.8,29.97,WSW,248,0.0,0.0,93,0.00,CLR,,0.00,WeatherDisplay:10.37,2013-10-08 07:00:00,
2013-10-08 03:05:00,43.9,42.0,29.97,WSW,248,3.5,3.5,93,0.00,CLR,,0.00,WeatherDisplay:10.37,2013-10-08 07:05:00,
2013-10-08 03:10:00,44.4,42.5,29.96,WSW,248,3.5,3.5,93,0.00,CLR,,0.00,WeatherDisplay:10.37,2013-10-08 07:10:00,
2013-10-08 03:15:00,44.6,42.7,29.96,West,270,3.7,3.7,93,0.00,CLR,,0.00,WeatherDisplay:10.37,2013-10-08 07:15:00,
2013-10-08 03:20:00,45.3,43.4,29.96,WSW,248,4.6,4.6,93,0.00,CLR,,0.00,WeatherDisplay:10.37,2013-10-08 07:20:00,
2013-10-08 03:25:00,45.7,43.5,29.97,West,270,4.6,4.6,92,0.00,CLR,,0.00,WeatherDisplay:10.37,2013-10-08 07:25:00,
2013-10-08 03:30:00,46.2,43.4,29.97,West,270,4.7,4.7,90,0.00,CLR,,0.00,WeatherDisplay:10.37,2013-10-08 07:30:00,
2013-10-08 03:35:00,46.6,43.5,29.97,West,270,4.6,4.6,89,0.00,CLR,,0.00,WeatherDisplay:10.37,2013-10-08 07:35:00,
2013-10-08 03:40:00,46.8,43.4,29.97,West,270,4.6,4.6,88,0.00,CLR,,0.00,WeatherDisplay:10.37,2013-10-08 07:40:00,
2013-10-08 03:45:00,46.9,43.5,29.97,WSW,248,4.7,4.7,88,0.00,CLR,,0.00,WeatherDisplay:10.37,2013-10-08 07:45:00,
2013-10-08 03:50:00,46.9,43.5,29.97,WSW,248,4.6,4.6,88,0.00,CLR,,0.00,WeatherDisplay:10.37,2013-10-08 07:50:00,
2013-10-08 03:55:00,46.9,43.5,29.97,WSW,248,4.6,4.6,88,0.00,CLR,,0.00,WeatherDisplay:10.37,2013-10-08 07:55:00,
2013-10-08 04:00:00,46.9,43.5,29.98,West,270,4.6,4.6,88,0.00,CLR,,0.00,WeatherDisplay:10.37,2013-10-08 08:00:00,
2013-10-08 04:05:00,46.9,43.5,29.98,West,270,3.7,3.7,88,0.00,CLR,,0.00,WeatherDisplay:10.37,2013-10-08 08:05:00,
2013-10-08 04:10:00,46.9,43.5,29.98,SW,225,3.7,3.7,88,0.00,CLR,,0.00,WeatherDisplay:10.37,2013-10-08 08:10:00,
2013-10-08 04:15:00,47.1,43.7,29.98,SW,225,3.7,3.7,88,0.00,CLR,,0.00,WeatherDisplay:10.37,2013-10-08 08:15:00,
2013-10-08 04:20:00,47.1,43.7,29.98,WSW,248,3.5,3.5,88,0.00,CLR,,0.00,WeatherDisplay:10.37,2013-10-08 08:20:00,
2013-10-08 04:25:00,47.1,43.7,29.98,West,270,1.7,1.7,88,0.00,CLR,,0.00,WeatherDisplay:10.37,2013-10-08 08:25:00,
2013-10-08 04:30:00,46.9,43.5,29.98,West,270,3.5,3.5,88,0.00,CLR,,0.00,WeatherDisplay:10.37,2013-10-08 08:30:00,
2013-10-08 04:35:00,46.9,43.5,29.99,West,270,1.1,0.0,88,0.00,CLR,,0.00,WeatherDisplay:10.37,2013-10-08 08:35:00,
2013-10-08 04:40:00,46.8,43.7,29.99,West,270,0.0,0.0,89,0.00,CLR,,0.00,WeatherDisplay:10.37,2013-10-08 08:40:00,
2013-10-08 04:45:00,46.4,43.3,29.99,West,270,0.0,0.0,89,0.00,CLR,,0.00,WeatherDisplay:10.37,2013-10-08 08:45:00,
2013-10-08 04:50:00,46.4,43.3,29.99,West,270,0.0,0.4,89,0.00,CLR,,0.00,WeatherDisplay:10.37,2013-10-08 08:50:00,
2013-10-08 04:55:00,46.8,44.0,29.99,North,360,2.2,2.2,90,0.00,CLR,,0.00,WeatherDisplay:10.37,2013-10-08 08:55:00,
2013-10-08 05:00:00,47.5,44.1,29.99,ENE,68,2.7,2.7,88,0.00,CLR,,0.00,WeatherDisplay:10.37,2013-10-08 09:00:00,
2013-10-08 05:05:00,48.0,44.3,29.99,NE,45,3.5,3.5,87,0.00,CLR,,0.00,WeatherDisplay:10.37,2013-10-08 09:05:00,
2013-10-08 05:10:00,48.0,44.3,29.99,North,360,3.5,3.5,87,0.00,CLR,,0.00,WeatherDisplay:10.37,2013-10-08 09:10:00,
2013-10-08 05:15:00,48.0,44.3,30.00,NE,45,3.5,3.5,87,0.00,CLR,,0.00,WeatherDisplay:10.37,2013-10-08 09:15:00,
2013-10-08 05:20:00,47.7,44.0,30.00,NNW,338,3.5,3.5,87,0.00,CLR,,0.00,WeatherDisplay:10.37,2013-10-08 09:20:00,
2013-10-08 05:25:00,47.5,43.8,30.00,WNW,292,3.5,3.5,87,0.00,CLR,,0.00,WeatherDisplay:10.37,2013-10-08 09:25:00,
2013-10-08 05:30:00,47.3,43.9,30.00,WNW,292,4.6,4.6,88,0.00,CLR,,0.00,WeatherDisplay:10.37,2013-10-08 09:30:00,
2013-10-08 05:35:00,46.9,43.5,30.01,South,180,3.5,3.5,88,0.00,CLR,,0.00,WeatherDisplay:10.37,2013-10-08 09:35:00,
2013-10-08 05:40:00,46.6,43.5,30.01,West,270,2.2,2.2,89,0.00,CLR,,0.00,WeatherDisplay:10.37,2013-10-08 09:40:00,
2013-10-08 05:45:00,46.9,43.8,30.01,East,90,3.5,3.5,89,0.00,CLR,,0.00,WeatherDisplay:10.37,2013-10-08 09:45:00,
2013-10-08 05:50:00,46.9,43.8,30.01,West,270,2.7,2.7,89,0.00,CLR,,0.00,WeatherDisplay:10.37,2013-10-08 09:50:00,
2013-10-08 05:55:00,46.8,43.7,30.01,NW,315,2.7,2.7,89,0.00,CLR,,0.00,WeatherDisplay:10.37,2013-10-08 09:55:00,
2013-10-08 06:00:00,46.4,43.3,30.01,West,270,1.1,1.1,89,0.00,CLR,,0.00,WeatherDisplay:10.37,2013-10-08 10:00:00,
2013-10-08 06:05:00,45.7,42.3,30.01,East,90,2.7,2.7,88,0.00,CLR,,0.00,WeatherDisplay:10.37,2013-10-08 10:05:00,
2013-10-08 06:10:00,44.6,41.6,30.02,ESE,112,2.3,2.3,89,0.00,CLR,,0.00,WeatherDisplay:10.37,2013-10-08 10:10:00,
2013-10-08 06:15:00,44.6,41.8,30.02,ESE,112,0.0,0.0,90,0.00,CLR,,0.00,WeatherDisplay:10.37,2013-10-08 10:15:00,
2013-10-08 06:20:00,44.2,41.7,30.02,ESE,112,0.0,0.0,91,0.00,CLR,,0.00,WeatherDisplay:10.37,2013-10-08 10:20:00,
2013-10-08 06:25:00,43.9,41.4,30.02,ESE,112,1.1,0.0,91,0.00,CLR,,0.00,WeatherDisplay:10.37,2013-10-08 10:25:00,
2013-10-08 06:30:00,43.3,40.8,30.02,ESE,112,0.0,0.0,91,0.00,CLR,,0.00,WeatherDisplay:10.37,2013-10-08 10:30:00,
2013-10-08 06:35:00,42.8,40.4,30.03,SW,225,0.0,0.0,91,0.00,CLR,,0.00,WeatherDisplay:10.37,2013-10-08 10:35:00,
2013-10-08 06:40:00,42.3,39.9,30.03,SW,225,0.0,0.0,91,0.00,CLR,,0.00,WeatherDisplay:10.37,2013-10-08 10:40:00,
2013-10-08 06:45:00,42.3,40.1,30.03,SW,225,0.0,0.0,92,0.00,CLR,,0.00,WeatherDisplay:10.37,2013-10-08 10:45:00,
2013-10-08 06:50:00,41.9,39.7,30.04,ESE,112,1.1,1.1,92,0.00,CLR,,0.00,WeatherDisplay:10.37,2013-10-08 10:50:00,
2013-10-08 06:55:00,41.7,39.5,30.04,ESE,112,0.0,0.0,92,0.00,CLR,,0.00,WeatherDisplay:10.37,2013-10-08 10:55:00,
2013-10-08 07:00:00,41.5,39.6,30.05,SW,225,0.0,0.0,93,0.00,CLR,,0.00,WeatherDisplay:10.37,2013-10-08 11:00:00,
2013-10-08 07:05:00,41.4,39.5,30.05,SW,225,0.0,0.0,93,0.00,CLR,,0.00,WeatherDisplay:10.37,2013-10-08 11:05:00,
2013-10-08 07:10:00,41.2,39.3,30.05,SW,225,0.0,0.0,93,0.00,CLR,,0.00,WeatherDisplay:10.37,2013-10-08 11:10:00,
2013-10-08 07:15:00,41.0,39.1,30.05,SW,225,2.3,2.3,93,0.00,CLR,,0.00,WeatherDisplay:10.37,2013-10-08 11:15:00,
2013-10-08 07:20:00,41.0,39.1,30.05,SSW,202,1.1,0.0,93,0.00,CLR,,0.00,WeatherDisplay:10.37,2013-10-08 11:20:00,
2013-10-08 07:25:00,40.8,38.9,30.06,SSW,202,0.0,0.0,93,0.00,CLR,,0.00,WeatherDisplay:10.37,2013-10-08 11:25:00,
2013-10-08 07:30:00,40.6,38.7,30.06,SSW,202,0.0,0.0,93,0.00,CLR,,0.00,WeatherDisplay:10.37,2013-10-08 11:30:00,
2013-10-08 07:35:00,40.6,38.7,30.06,SSW,202,0.0,0.0,93,0.00,CLR,,0.00,WeatherDisplay:10.37,2013-10-08 11:35:00,
2013-10-08 07:40:00,40.6,38.7,30.06,SSW,202,0.0,0.0,93,0.00,CLR,,0.00,WeatherDisplay:10.37,2013-10-08 11:40:00,
2013-10-08 07:45:00,41.2,39.3,30.06,SSW,202,0.0,0.0,93,0.00,CLR,,0.00,WeatherDisplay:10.37,2013-10-08 11:45:00,
2013-10-08 07:50:00,41.7,39.8,30.07,SW,225,0.0,0.0,93,0.00,CLR,,0.00,WeatherDisplay:10.37,2013-10-08 11:50:00,
2013-10-08 07:55:00,42.3,40.4,30.07,SW,225,0.0,0.0,93,0.00,CLR,,0.00,WeatherDisplay:10.37,2013-10-08 11:55:00,
2013-10-08 08:00:00,42.8,40.9,30.08,SW,225,0.0,0.0,93,0.00,CLR,,0.00,WeatherDisplay:10.37,2013-10-08 12:00:00,
2013-10-08 08:05:00,43.5,41.6,30.08,West,270,0.0,0.0,93,0.00,CLR,,0.00,WeatherDisplay:10.37,2013-10-08 12:05:00,
2013-10-08 08:10:00,44.4,42.2,30.08,West,270,0.0,0.0,92,0.00,CLR,,0.00,WeatherDisplay:10.37,2013-10-08 12:10:00,
2013-10-08 08:15:00,46.2,44.3,30.08,East,90,0.0,0.0,93,0.00,CLR,,0.00,WeatherDisplay:10.37,2013-10-08 12:15:00,
2013-10-08 08:20:00,46.4,43.9,30.08,ESE,112,0.0,0.0,91,0.00,CLR,,0.00,WeatherDisplay:10.37,2013-10-08 12:20:00,
2013-10-08 08:25:00,47.5,44.7,30.09,South,180,0.0,0.0,90,0.00,CLR,,0.00,WeatherDisplay:10.37,2013-10-08 12:25:00,
2013-10-08 08:30:00,48.4,44.7,30.09,West,270,0.0,0.0,87,0.00,CLR,,0.00,WeatherDisplay:10.37,2013-10-08 12:30:00,
2013-10-08 08:35:00,48.7,44.7,30.09,SSW,202,1.1,1.2,86,0.00,CLR,,0.00,WeatherDisplay:10.37,2013-10-08 12:35:00,
2013-10-08 08:40:00,50.2,45.2,30.09,SSW,202,2.3,2.3,83,0.00,CLR,,0.00,WeatherDisplay:10.37,2013-10-08 12:40:00,
2013-10-08 08:45:00,51.3,46.3,30.09,SW,225,0.0,0.0,83,0.00,CLR,,0.00,WeatherDisplay:10.37,2013-10-08 12:45:00,
2013-10-08 08:50:00,52.3,47.0,30.09,SW,225,1.1,0.0,82,0.00,CLR,,0.00,WeatherDisplay:10.37,2013-10-08 12:50:00,
2013-10-08 08:55:00,52.0,46.3,30.09,SSW,202,3.5,3.5,81,0.00,CLR,,0.00,WeatherDisplay:10.37,2013-10-08 12:55:00,
2013-10-08 09:00:00,52.7,47.0,30.10,SW,225,0.0,0.0,81,0.00,CLR,,0.00,WeatherDisplay:10.37,2013-10-08 13:00:00,
2013-10-08 09:05:00,50.9,45.9,30.10,SSW,202,2.2,2.2,83,0.00,CLR,,0.00,WeatherDisplay:10.37,2013-10-08 13:05:00,
2013-10-08 09:10:00,48.0,44.6,30.10,WSW,248,3.5,3.5,88,0.00,CLR,,0.00,WeatherDisplay:10.37,2013-10-08 13:10:00,
2013-10-08 09:15:00,52.5,46.8,30.10,SW,225,0.0,0.0,81,0.00,CLR,,0.00,WeatherDisplay:10.37,2013-10-08 13:15:00,
2013-10-08 09:20:00,52.9,47.9,30.10,South,180,2.3,2.3,83,0.00,CLR,,0.00,WeatherDisplay:10.37,2013-10-08 13:20:00,
2013-10-08 09:25:00,52.3,47.6,30.10,ESE,112,0.0,0.0,84,0.00,CLR,,0.00,WeatherDisplay:10.37,2013-10-08 13:25:00,
2013-10-08 09:30:00,52.0,47.6,30.10,South,180,1.1,0.0,85,0.00,CLR,,0.00,WeatherDisplay:10.37,2013-10-08 13:30:00,
2013-10-08 09:35:00,51.6,47.2,30.10,ESE,112,2.2,2.2,85,0.00,CLR,,0.00,WeatherDisplay:10.37,2013-10-08 13:35:00,
2013-10-08 09:40:00,51.1,47.1,30.10,ESE,112,3.5,3.5,86,0.00,CLR,,0.00,WeatherDisplay:10.37,2013-10-08 13:40:00,
2013-10-08 09:45:00,53.6,48.6,30.10,East,90,2.2,2.2,83,0.00,CLR,,0.00,WeatherDisplay:10.37,2013-10-08 13:45:00,
2013-10-08 09:50:00,52.3,47.6,30.10,East,90,2.3,2.3,84,0.00,CLR,,0.00,WeatherDisplay:10.37,2013-10-08 13:50:00,
2013-10-08 09:55:00,55.0,49.3,30.10,ESE,112,2.2,2.2,81,0.00,CLR,,0.00,WeatherDisplay:10.37,2013-10-08 13:55:00,
2013-10-08 10:00:00,53.6,48.6,30.10,SSE,158,3.5,3.5,83,0.00,CLR,,0.00,WeatherDisplay:10.37,2013-10-08 14:00:00,
2013-10-08 10:05:00,53.6,48.6,30.10,SSW,202,2.7,2.7,83,0.00,CLR,,0.00,WeatherDisplay:10.37,2013-10-08 14:05:00,
2013-10-08 10:10:00,54.9,48.8,30.10,SW,225,4.7,4.7,80,0.00,CLR,,0.00,WeatherDisplay:10.37,2013-10-08 14:10:00,
2013-10-08 10:15:00,52.5,47.5,30.10,NE,45,4.6,4.6,83,0.00,CLR,,0.00,WeatherDisplay:10.37,2013-10-08 14:15:00,
2013-10-08 10:20:00,53.6,48.6,30.10,East,90,5.8,5.8,83,0.00,CLR,,0.00,WeatherDisplay:10.37,2013-10-08 14:20:00,
2013-10-08 10:25:00,53.8,48.4,30.11,ESE,112,6.8,6.8,82,0.00,CLR,,0.00,WeatherDisplay:10.37,2013-10-08 14:25:00,
2013-10-08 10:30:00,53.4,48.0,30.11,SE,135,6.9,6.9,82,0.00,CLR,,0.00,WeatherDisplay:10.37,2013-10-08 14:30:00,
2013-10-08 10:35:00,53.6,48.2,30.10,ESE,112,7.3,7.3,82,0.00,CLR,,0.00,WeatherDisplay:10.37,2013-10-08 14:35:00,
2013-10-08 10:40:00,54.0,48.6,30.10,ESE,112,6.9,6.9,82,0.00,CLR,,0.00,WeatherDisplay:10.37,2013-10-08 14:40:00,
2013-10-08 10:45:00,54.3,48.9,30.10,ESE,112,5.8,5.8,82,0.00,CLR,,0.00,WeatherDisplay:10.37,2013-10-08 14:45:00,
2013-10-08 10:50:00,54.7,49.0,30.11,WNW,292,5.8,5.8,81,0.00,CLR,,0.00,WeatherDisplay:10.37,2013-10-08 14:50:00,
2013-10-08 10:55:00,55.0,48.6,30.11,ESE,112,6.9,6.9,79,0.00,CLR,,0.00,WeatherDisplay:10.37,2013-10-08 14:55:00,
2013-10-08 11:00:00,55.9,49.1,30.11,ESE,112,6.9,6.9,78,0.00,CLR,,0.00,WeatherDisplay:10.37,2013-10-08 15:00:00,
2013-10-08 11:05:00,56.7,49.9,30.11,NE,45,5.8,5.8,78,0.00,CLR,,0.00,WeatherDisplay:10.37,2013-10-08 15:05:00,
2013-10-08 11:10:00,57.0,49.9,30.11,ESE,112,5.8,5.8,77,0.00,CLR,,0.00,WeatherDisplay:10.37,2013-10-08 15:10:00,
2013-10-08 11:15:00,56.1,49.3,30.11,ESE,112,5.8,5.8,78,0.00,CLR,,0.00,WeatherDisplay:10.37,2013-10-08 15:15:00,
2013-10-08 11:20:00,56.3,49.5,30.11,NE,45,4.7,4.9,78,0.00,CLR,,0.00,WeatherDisplay:10.37,2013-10-08 15:20:00,
2013-10-08 11:25:00,56.5,48.7,30.11,ESE,112,10.4,10.4,75,0.00,CLR,,0.00,WeatherDisplay:10.37,2013-10-08 15:25:00,
2013-10-08 11:30:00,56.8,49.3,30.11,ESE,112,6.9,6.9,76,0.00,CLR,,0.00,WeatherDisplay:10.37,2013-10-08 15:30:00,
2013-10-08 11:35:00,58.6,49.6,30.12,SE,135,6.9,6.9,72,0.00,CLR,,0.00,WeatherDisplay:10.37,2013-10-08 15:35:00,
2013-10-08 11:40:00,57.7,48.7,30.12,ESE,112,8.1,8.1,72,0.00,CLR,,0.00,WeatherDisplay:10.37,2013-10-08 15:40:00,
2013-10-08 11:45:00,58.3,48.9,30.12,SE,135,9.2,9.2,71,0.00,CLR,,0.00,WeatherDisplay:10.37,2013-10-08 15:45:00,
2013-10-08 11:50:00,59.4,48.4,30.12,ESE,112,11.5,11.5,67,0.00,CLR,,0.00,WeatherDisplay:10.37,2013-10-08 15:50:00,
2013-10-08 11:55:00,58.8,49.0,30.12,ESE,112,8.1,8.1,70,0.00,CLR,,0.00,WeatherDisplay:10.37,2013-10-08 15:55:00,
2013-10-08 12:00:00,58.1,48.0,30.12,ESE,112,6.9,6.9,69,0.00,CLR,,0.00,WeatherDisplay:10.37,2013-10-08 16:00:00,
2013-10-08 12:05:00,58.1,48.0,30.12,ESE,112,5.8,6.1,69,0.00,CLR,,0.00,WeatherDisplay:10.37,2013-10-08 16:05:00,
2013-10-08 12:10:00,57.7,46.8,30.12,ESE,112,8.1,8.1,67,0.00,CLR,,0.00,WeatherDisplay:10.37,2013-10-08 16:10:00,
2013-10-08 12:15:00,58.6,47.3,30.12,East,90,7.3,7.3,66,0.00,CLR,,0.00,WeatherDisplay:10.37,2013-10-08 16:15:00,
2013-10-08 12:20:00,58.5,47.2,30.12,East,90,8.1,8.1,66,0.00,CLR,,0.00,WeatherDisplay:10.37,2013-10-08 16:20:00,
2013-10-08 12:25:00,58.6,47.7,30.12,ESE,112,8.1,8.1,67,0.00,CLR,,0.00,WeatherDisplay:10.37,2013-10-08 16:25:00,
2013-10-08 12:30:00,58.8,47.5,30.12,East,90,5.8,6.0,66,0.00,CLR,,0.00,WeatherDisplay:10.37,2013-10-08 16:30:00,
2013-10-08 12:35:00,58.5,48.0,30.12,ESE,112,6.9,6.9,68,0.00,FEW,,0.00,WeatherDisplay:10.37,2013-10-08 16:35:00,
2013-10-08 12:40:00,58.5,47.6,30.12,NNW,338,6.8,6.8,67,0.00,FEW,,0.00,WeatherDisplay:10.37,2013-10-08 16:40:00,
2013-10-08 12:45:00,58.6,46.9,30.12,ESE,112,6.9,6.9,65,0.00,FEW,,0.00,WeatherDisplay:10.37,2013-10-08 16:45:00,
2013-10-08 12:50:00,59.4,46.4,30.11,SE,135,10.9,10.9,62,0.00,FEW,,0.00,WeatherDisplay:10.37,2013-10-08 16:50:00,
2013-10-08 12:55:00,60.6,47.1,30.11,West,270,10.4,10.4,61,0.00,FEW,,0.00,WeatherDisplay:10.37,2013-10-08 16:55:00,
2013-10-08 13:00:00,61.2,46.3,30.11,East,90,10.4,10.4,58,0.00,FEW,,0.00,WeatherDisplay:10.37,2013-10-08 17:00:00,
2013-10-08 13:05:00,61.3,46.8,30.11,ESE,112,10.4,10.4,59,0.00,SCT,,0.00,WeatherDisplay:10.37,2013-10-08 17:05:00,
2013-10-08 13:10:00,60.8,47.3,30.11,ESE,112,10.4,10.4,61,0.00,SCT,,0.00,WeatherDisplay:10.37,2013-10-08 17:10:00,
2013-10-08 13:15:00,61.3,47.3,30.10,ESE,112,8.1,8.1,60,0.00,SCT,,0.00,WeatherDisplay:10.37,2013-10-08 17:15:00,
2013-10-08 13:20:00,62.8,46.9,30.10,SE,135,9.2,9.2,56,0.00,SCT,,0.00,WeatherDisplay:10.37,2013-10-08 17:20:00,
2013-10-08 13:25:00,61.9,47.0,30.10,SE,135,9.4,9.4,58,0.00,SCT,,0.00,WeatherDisplay:10.37,2013-10-08 17:25:00,
2013-10-08 13:30:00,61.3,46.4,30.10,ESE,112,10.4,10.4,58,0.00,SCT,,0.00,WeatherDisplay:10.37,2013-10-08 17:30:00,
2013-10-08 13:35:00,61.2,46.3,30.09,SE,135,11.9,11.9,58,0.00,SCT,,0.00,WeatherDisplay:10.37,2013-10-08 17:35:00,
2013-10-08 13:40:00,61.0,46.1,30.09,SE,135,8.1,8.1,58,0.00,SCT,,0.00,WeatherDisplay:10.37,2013-10-08 17:40:00,
2013-10-08 13:45:00,62.6,47.1,30.09,ESE,112,5.3,5.3,57,0.00,SCT,,0.00,WeatherDisplay:10.37,2013-10-08 17:45:00,
2013-10-08 13:50:00,62.2,46.8,30.09,ESE,112,10.4,10.4,57,0.00,SCT,,0.00,WeatherDisplay:10.37,2013-10-08 17:50:00,
2013-10-08 13:55:00,61.9,47.0,30.09,South,180,8.1,8.1,58,0.00,SCT,,0.00,WeatherDisplay:10.37,2013-10-08 17:55:00,
2013-10-08 14:00:00,60.6,46.2,30.09,East,90,5.8,5.8,59,0.00,SCT,,0.00,WeatherDisplay:10.37,2013-10-08 18:00:00,
2013-10-08 14:05:00,60.8,46.4,30.09,East,90,6.9,6.9,59,0.00,SCT,,0.00,WeatherDisplay:10.37,2013-10-08 18:05:00,
2013-10-08 14:10:00,61.7,46.8,30.09,ESE,112,6.3,6.3,58,0.00,SCT,,0.00,WeatherDisplay:10.37,2013-10-08 18:10:00,
2013-10-08 14:15:00,61.7,45.8,30.09,East,90,6.8,6.8,56,0.00,SCT,,0.00,WeatherDisplay:10.37,2013-10-08 18:15:00,
2013-10-08 14:20:00,63.3,46.4,30.09,SSE,158,8.8,8.8,54,0.00,SCT,,0.00,WeatherDisplay:10.37,2013-10-08 18:20:00,
2013-10-08 14:25:00,62.8,45.9,30.09,ESE,112,8.1,8.1,54,0.00,SCT,,0.00,WeatherDisplay:10.37,2013-10-08 18:25:00,
2013-10-08 14:30:00,63.3,46.9,30.09,South,180,6.9,6.9,55,0.00,SCT,,0.00,WeatherDisplay:10.37,2013-10-08 18:30:00,
2013-10-08 14:35:00,62.1,45.7,30.09,ESE,112,6.9,6.9,55,0.00,SCT,,0.00,WeatherDisplay:10.37,2013-10-08 18:35:00,
2013-10-08 14:40:00,62.8,46.4,30.09,ESE,112,11.4,11.4,55,0.00,SCT,,0.00,WeatherDisplay:10.37,2013-10-08 18:40:00,
2013-10-08 14:45:00,61.9,46.0,30.09,ESE,112,10.4,10.4,56,0.00,SCT,,0.00,WeatherDisplay:10.37,2013-10-08 18:45:00,
2013-10-08 14:50:00,62.2,45.8,30.08,ESE,112,8.3,8.3,55,0.00,SCT,,0.00,WeatherDisplay:10.37,2013-10-08 18:50:00,
2013-10-08 14:55:00,62.4,46.5,30.08,ESE,112,8.1,8.1,56,0.00,SCT,,0.00,WeatherDisplay:10.37,2013-10-08 18:55:00,
2013-10-08 15:00:00,64.9,47.4,30.08,West,270,6.9,6.9,53,0.00,SCT,,0.00,WeatherDisplay:10.37,2013-10-08 19:00:00,
2013-10-08 15:05:00,67.5,47.7,30.08,SW,225,2.3,2.3,49,0.00,FEW,,0.00,WeatherDisplay:10.37,2013-10-08 19:05:00,
2013-10-08 15:10:00,62.2,46.3,30.08,ENE,68,6.8,6.8,56,0.00,FEW,,0.00,WeatherDisplay:10.37,2013-10-08 19:10:00,
2013-10-08 15:15:00,62.6,46.2,30.08,East,90,9.4,9.4,55,0.00,FEW,,0.00,WeatherDisplay:10.37,2013-10-08 19:15:00,
2013-10-08 15:20:00,62.1,46.2,30.08,ENE,68,8.1,8.1,56,0.00,FEW,,0.00,WeatherDisplay:10.37,2013-10-08 19:20:00,
2013-10-08 15:25:00,62.4,46.0,30.08,East,90,8.3,8.3,55,0.00,FEW,,0.00,WeatherDisplay:10.37,2013-10-08 19:25:00,
2013-10-08 15:30:00,62.8,46.4,30.08,ESE,112,6.9,6.9,55,0.00,FEW,,0.00,WeatherDisplay:10.37,2013-10-08 19:30:00,
2013-10-08 15:35:00,63.3,46.4,30.08,ESE,112,2.3,2.5,54,0.00,FEW,,0.00,WeatherDisplay:10.37,2013-10-08 19:35:00,
2013-10-08 15:40:00,64.4,46.4,30.08,ESE,112,3.7,3.7,52,0.00,FEW,,0.00,WeatherDisplay:10.37,2013-10-08 19:40:00,
2013-10-08 15:45:00,63.5,46.6,30.08,ENE,68,8.1,8.1,54,0.00,FEW,,0.00,WeatherDisplay:10.37,2013-10-08 19:45:00,
2013-10-08 15:50:00,62.4,46.0,30.07,SE,135,6.9,6.9,55,0.00,FEW,,0.00,WeatherDisplay:10.37,2013-10-08 19:50:00,
2013-10-08 15:55:00,62.8,46.4,30.07,East,90,5.8,5.8,55,0.00,FEW,,0.00,WeatherDisplay:10.37,2013-10-08 19:55:00,
2013-10-08 16:00:00,64.6,47.1,30.06,ESE,112,1.1,1.1,53,0.00,FEW,,0.00,WeatherDisplay:10.37,2013-10-08 20:00:00,
2013-10-08 16:05:00,65.3,46.7,30.06,East,90,7.8,7.8,51,0.00,FEW,,0.00,WeatherDisplay:10.37,2013-10-08 20:05:00,
2013-10-08 16:10:00,63.0,46.1,30.06,East,90,9.9,9.9,54,0.00,FEW,,0.00,WeatherDisplay:10.37,2013-10-08 20:10:00,
2013-10-08 16:15:00,63.1,46.2,30.06,ENE,68,8.1,8.1,54,0.00,FEW,,0.00,WeatherDisplay:10.37,2013-10-08 20:15:00,
2013-10-08 16:20:00,63.0,46.1,30.06,NE,45,5.8,5.8,54,0.00,FEW,,0.00,WeatherDisplay:10.37,2013-10-08 20:20:00,
2013-10-08 16:25:00,64.0,47.0,30.06,SSW,202,7.8,7.8,54,0.00,FEW,,0.00,WeatherDisplay:10.37,2013-10-08 20:25:00,
2013-10-08 16:30:00,63.1,45.7,30.06,NNE,22,7.3,7.9,53,0.00,FEW,,0.00,WeatherDisplay:10.37,2013-10-08 20:30:00,
2013-10-08 16:35:00,63.5,46.6,30.06,ENE,68,8.1,8.1,54,0.00,CLR,,0.00,WeatherDisplay:10.37,2013-10-08 20:35:00,
2013-10-08 16:40:00,63.3,45.9,30.06,ESE,112,5.8,5.8,53,0.00,CLR,,0.00,WeatherDisplay:10.37,2013-10-08 20:40:00,
2013-10-08 16:45:00,63.7,45.2,30.06,NE,45,4.2,4.2,51,0.00,CLR,,0.00,WeatherDisplay:10.37,2013-10-08 20:45:00,
2013-10-08 16:50:00,63.5,45.6,30.06,ESE,112,8.1,8.1,52,0.00,CLR,,0.00,WeatherDisplay:10.37,2013-10-08 20:50:00,
2013-10-08 16:55:00,63.5,45.6,30.06,SSE,158,5.8,5.8,52,0.00,CLR,,0.00,WeatherDisplay:10.37,2013-10-08 20:55:00,
2013-10-08 17:00:00,63.5,45.6,30.06,SSE,158,5.8,5.8,52,0.00,CLR,,0.00,WeatherDisplay:10.37,2013-10-08 21:00:00,
2013-10-08 17:05:00,63.9,46.4,30.06,East,90,5.8,5.8,53,0.00,CLR,,0.00,WeatherDisplay:10.37,2013-10-08 21:05:00,
2013-10-08 17:10:00,63.7,46.2,30.06,East,90,2.3,2.3,53,0.00,CLR,,0.00,WeatherDisplay:10.37,2013-10-08 21:10:00,
2013-10-08 17:15:00,64.6,46.6,30.06,ESE,112,9.9,9.9,52,0.00,CLR,,0.00,WeatherDisplay:10.37,2013-10-08 21:15:00,
2013-10-08 17:20:00,63.5,45.6,30.06,ESE,112,8.1,8.1,52,0.00,CLR,,0.00,WeatherDisplay:10.37,2013-10-08 21:20:00,
2013-10-08 17:25:00,63.3,45.9,30.07,SE,135,5.8,5.8,53,0.00,CLR,,0.00,WeatherDisplay:10.37,2013-10-08 21:25:00,
2013-10-08 17:30:00,63.3,45.4,30.07,SE,135,5.8,5.8,52,0.00,CLR,,0.00,WeatherDisplay:10.37,2013-10-08 21:30:00,
2013-10-08 17:35:00,63.3,45.4,30.07,ENE,68,3.7,3.7,52,0.00,CLR,,0.00,WeatherDisplay:10.37,2013-10-08 21:35:00,
2013-10-08 17:40:00,63.5,46.1,30.07,ESE,112,8.1,8.1,53,0.00,CLR,,0.00,WeatherDisplay:10.37,2013-10-08 21:40:00,
2013-10-08 17:45:00,63.3,45.9,30.07,ESE,112,5.8,5.8,53,0.00,CLR,,0.00,WeatherDisplay:10.37,2013-10-08 21:45:00,
2013-10-08 17:50:00,63.3,45.4,30.07,ENE,68,5.8,5.8,52,0.00,CLR,,0.00,WeatherDisplay:10.37,2013-10-08 21:50:00,
2013-10-08 17:55:00,63.5,45.6,30.07,ESE,112,6.8,6.8,52,0.00,CLR,,0.00,WeatherDisplay:10.37,2013-10-08 21:55:00,
2013-10-08 18:00:00,63.0,46.1,30.07,ESE,112,6.9,6.9,54,0.00,CLR,,0.00,WeatherDisplay:10.37,2013-10-08 22:00:00,
2013-10-08 18:05:00,62.8,45.4,30.07,ESE,112,5.8,5.8,53,0.00,CLR,,0.00,WeatherDisplay:10.37,2013-10-08 22:05:00,
2013-10-08 18:10:00,62.6,45.7,30.08,ESE,112,4.6,4.6,54,0.00,CLR,,0.00,WeatherDisplay:10.37,2013-10-08 22:10:00,
2013-10-08 18:15:00,62.6,45.7,30.08,East,90,4.6,4.6,54,0.00,CLR,,0.00,WeatherDisplay:10.37,2013-10-08 22:15:00,
2013-10-08 18:20:00,62.6,45.7,30.08,NE,45,4.6,4.6,54,0.00,CLR,,0.00,WeatherDisplay:10.37,2013-10-08 22:20:00,
2013-10-08 18:25:00,62.4,46.0,30.07,ESE,112,4.6,4.6,55,0.00,CLR,,0.00,WeatherDisplay:10.37,2013-10-08 22:25:00,
2013-10-08 18:30:00,62.1,45.7,30.07,East,90,5.8,5.8,55,0.00,CLR,,0.00,WeatherDisplay:10.37,2013-10-08 22:30:00,
2013-10-08 18:35:00,61.9,46.0,30.08,ENE,68,5.8,5.8,56,0.00,CLR,,0.00,WeatherDisplay:10.37,2013-10-08 22:35:00,
2013-10-08 18:40:00,61.5,45.7,30.08,ESE,112,4.2,4.2,56,0.00,CLR,,0.00,WeatherDisplay:10.37,2013-10-08 22:40:00,
2013-10-08 18:45:00,61.3,45.9,30.08,East,90,4.6,4.6,57,0.00,CLR,,0.00,WeatherDisplay:10.37,2013-10-08 22:45:00,
2013-10-08 18:50:00,61.2,45.8,30.07,ENE,68,4.7,4.7,57,0.00,CLR,,0.00,WeatherDisplay:10.37,2013-10-08 22:50:00,
2013-10-08 18:55:00,61.0,46.1,30.07,ESE,112,4.6,4.6,58,0.00,CLR,,0.00,WeatherDisplay:10.37,2013-10-08 22:55:00,
2013-10-08 19:00:00,61.0,46.1,30.08,East,90,4.6,4.6,58,0.00,CLR,,0.00,WeatherDisplay:10.37,2013-10-08 23:00:00,
2013-10-08 19:05:00,60.8,46.4,30.08,ESE,112,4.6,4.6,59,0.00,CLR,,0.00,WeatherDisplay:10.37,2013-10-08 23:05:00,
2013-10-08 19:10:00,60.4,46.0,30.08,ESE,112,4.6,4.6,59,0.00,CLR,,0.00,WeatherDisplay:10.37,2013-10-08 23:10:00,
2013-10-08 19:15:00,60.1,46.2,30.07,East,90,3.5,3.5,60,0.00,CLR,,0.00,WeatherDisplay:10.37,2013-10-08 23:15:00,
2013-10-08 19:20:00,59.9,46.0,30.07,East,90,3.5,3.5,60,0.00,CLR,,0.00,WeatherDisplay:10.37,2013-10-08 23:20:00,
2013-10-08 19:25:00,59.9,46.0,30.07,NE,45,3.5,3.5,60,0.00,CLR,,0.00,WeatherDisplay:10.37,2013-10-08 23:25:00,
2013-10-08 19:30:00,59.7,46.2,30.07,East,90,3.5,3.5,61,0.00,CLR,,0.00,WeatherDisplay:10.37,2013-10-08 23:30:00,
2013-10-08 19:35:00,59.7,46.2,30.07,ENE,68,4.6,4.6,61,0.00,CLR,,0.00,WeatherDisplay:10.37,2013-10-08 23:35:00,
2013-10-08 19:40:00,59.4,46.4,30.07,ESE,112,4.6,4.6,62,0.00,CLR,,0.00,WeatherDisplay:10.37,2013-10-08 23:40:00,
2013-10-08 19:45:00,59.5,46.0,30.07,ENE,68,4.6,4.6,61,0.00,CLR,,0.00,WeatherDisplay:10.37,2013-10-08 23:45:00,
2013-10-08 19:50:00,59.4,45.9,30.07,East,90,4.6,4.6,61,0.00,CLR,,0.00,WeatherDisplay:10.37,2013-10-08 23:50:00,
2013-10-08 19:55:00,58.8,45.8,30.07,East,90,3.5,3.5,62,0.00,CLR,,0.00,WeatherDisplay:10.37,2013-10-08 23:55:00,
2013-10-08 20:00:00,58.6,46.0,30.07,East,90,3.7,3.7,63,0.00,CLR,,0.00,WeatherDisplay:10.37,2013-10-09 00:00:00,
2013-10-08 20:05:00,58.5,45.9,30.07,SE,135,4.6,4.6,63,0.00,CLR,,0.00,WeatherDisplay:10.37,2013-10-09 00:05:00,
2013-10-08 20:10:00,58.1,46.0,30.07,SSE,158,4.6,4.6,64,0.00,CLR,,0.00,WeatherDisplay:10.37,2013-10-09 00:10:00,
2013-10-08 20:15:00,58.1,46.0,30.07,East,90,4.6,4.6,64,0.00,CLR,,0.00,WeatherDisplay:10.37,2013-10-09 00:15:00,
2013-10-08 20:20:00,57.9,46.2,30.07,SE,135,5.8,5.8,65,0.00,CLR,,0.00,WeatherDisplay:10.37,2013-10-09 00:20:00,
2013-10-08 20:25:00,57.6,45.9,30.07,East,90,4.7,4.7,65,0.00,CLR,,0.00,WeatherDisplay:10.37,2013-10-09 00:25:00,
2013-10-08 20:30:00,57.6,46.3,30.07,ESE,112,5.8,5.8,66,0.00,CLR,,0.00,WeatherDisplay:10.37,2013-10-09 00:30:00,
2013-10-08 20:35:00,57.6,46.3,30.07,ESE,112,4.6,4.6,66,0.00,CLR,,0.00,WeatherDisplay:10.37,2013-10-09 00:35:00,
2013-10-08 20:40:00,57.0,46.5,30.07,East,90,5.8,5.8,68,0.00,CLR,,0.00,WeatherDisplay:10.37,2013-10-09 00:40:00,
2013-10-08 20:45:00,56.8,46.7,30.07,ENE,68,4.6,4.6,69,0.00,CLR,,0.00,WeatherDisplay:10.37,2013-10-09 00:45:00,
2013-10-08 20:50:00,56.5,46.4,30.08,East,90,4.6,4.6,69,0.00,CLR,,0.00,WeatherDisplay:10.37,2013-10-09 00:50:00,
2013-10-08 20:55:00,56.3,46.6,30.08,ENE,68,4.6,4.6,70,0.00,CLR,,0.00,WeatherDisplay:10.37,2013-10-09 00:55:00,
2013-10-08 21:00:00,55.4,46.9,30.08,ESE,112,3.5,3.5,73,0.00,CLR,,0.00,WeatherDisplay:10.37,2013-10-09 01:00:00,
2013-10-08 21:05:00,54.9,47.1,30.08,ESE,112,3.5,3.5,75,0.00,CLR,,0.00,WeatherDisplay:10.37,2013-10-09 01:05:00,
2013-10-08 21:10:00,54.3,47.2,30.08,East,90,3.7,3.7,77,0.00,CLR,,0.00,WeatherDisplay:10.37,2013-10-09 01:10:00,
2013-10-08 21:15:00,55.2,46.7,30.08,NE,45,4.6,4.6,73,0.00,CLR,,0.00,WeatherDisplay:10.37,2013-10-09 01:15:00,
2013-10-08 21:20:00,55.0,46.5,30.08,East,90,3.7,3.7,73,0.00,CLR,,0.00,WeatherDisplay:10.37,2013-10-09 01:20:00,
2013-10-08 21:25:00,55.0,46.5,30.08,East,90,3.5,3.5,73,0.00,CLR,,0.00,WeatherDisplay:10.37,2013-10-09 01:25:00,
2013-10-08 21:30:00,54.5,46.4,30.08,ESE,112,3.5,3.5,74,0.00,CLR,,0.00,WeatherDisplay:10.37,2013-10-09 01:30:00,
2013-10-08 21:35:00,54.3,46.5,30.09,East,90,3.5,3.5,75,0.00,CLR,,0.00,WeatherDisplay:10.37,2013-10-09 01:35:00,
2013-10-08 21:40:00,54.1,46.7,30.09,ESE,112,3.5,3.5,76,0.00,CLR,,0.00,WeatherDisplay:10.37,2013-10-09 01:40:00,
2013-10-08 21:45:00,54.0,46.6,30.09,ESE,112,2.3,2.6,76,0.00,CLR,,0.00,WeatherDisplay:10.37,2013-10-09 01:45:00,
2013-10-08 21:50:00,53.6,46.6,30.09,East,90,2.3,2.3,77,0.00,CLR,,0.00,WeatherDisplay:10.37,2013-10-09 01:50:00,
2013-10-08 21:55:00,53.8,46.8,30.09,East,90,3.5,3.5,77,0.00,CLR,,0.00,WeatherDisplay:10.37,2013-10-09 01:55:00,
2013-10-08 22:00:00,53.6,46.6,30.10,ESE,112,3.5,3.5,77,0.00,CLR,,0.00,WeatherDisplay:10.37,2013-10-09 02:00:00,
2013-10-08 22:05:00,53.1,46.4,30.10,ESE,112,2.3,2.4,78,0.00,CLR,,0.00,WeatherDisplay:10.37,2013-10-09 02:05:00,
2013-10-08 22:10:00,53.1,46.4,30.10,ESE,112,3.5,3.5,78,0.00,CLR,,0.00,WeatherDisplay:10.37,2013-10-09 02:10:00,
2013-10-08 22:15:00,52.3,46.6,30.10,ESE,112,3.5,3.5,81,0.00,CLR,,0.00,WeatherDisplay:10.37,2013-10-09 02:15:00,
2013-10-08 22:20:00,51.3,46.3,30.10,ESE,112,4.6,4.6,83,0.00,CLR,,0.00,WeatherDisplay:10.37,2013-10-09 02:20:00,
2013-10-08 22:25:00,51.6,46.6,30.10,SSE,158,3.5,3.5,83,0.00,CLR,,0.00,WeatherDisplay:10.37,2013-10-09 02:25:00,
2013-10-08 22:30:00,51.3,46.3,30.10,SE,135,0.0,0.0,83,0.00,CLR,,0.00,WeatherDisplay:10.37,2013-10-09 02:30:00,
2013-10-08 22:35:00,51.1,46.1,30.10,East,90,0.0,0.0,83,0.00,CLR,,0.00,WeatherDisplay:10.37,2013-10-09 02:35:00,
2013-10-08 22:40:00,50.9,45.9,30.10,ESE,112,2.7,2.7,83,0.00,CLR,,0.00,WeatherDisplay:10.37,2013-10-09 02:40:00,
2013-10-08 22:45:00,51.6,46.0,30.10,ESE,112,4.6,4.6,81,0.00,CLR,,0.00,WeatherDisplay:10.37,2013-10-09 02:45:00,
2013-10-08 22:50:00,52.5,45.8,30.11,ESE,112,4.6,4.6,78,0.00,CLR,,0.00,WeatherDisplay:10.37,2013-10-09 02:50:00,
2013-10-08 22:55:00,52.7,46.0,30.11,ESE,112,3.7,3.8,78,0.00,CLR,,0.00,WeatherDisplay:10.37,2013-10-09 02:55:00,
2013-10-08 23:00:00,52.7,46.0,30.10,ESE,112,3.7,3.7,78,0.00,CLR,,0.00,WeatherDisplay:10.37,2013-10-09 03:00:00,
2013-10-08 23:05:00,52.5,45.8,30.10,ESE,112,4.6,4.6,78,0.00,CLR,,0.00,WeatherDisplay:10.37,2013-10-09 03:05:00,
2013-10-08 23:10:00,52.3,46.0,30.10,ESE,112,4.6,4.6,79,0.00,CLR,,0.00,WeatherDisplay:10.37,2013-10-09 03:10:00,
2013-10-08 23:15:00,52.2,45.9,30.10,ESE,112,4.6,4.6,79,0.00,CLR,,0.00,WeatherDisplay:10.37,2013-10-09 03:15:00,
2013-10-08 23:20:00,51.8,45.8,30.10,SE,135,3.5,3.5,80,0.00,CLR,,0.00,WeatherDisplay:10.37,2013-10-09 03:20:00,
2013-10-08 23:25:00,51.6,46.0,30.10,ESE,112,2.3,2.3,81,0.00,CLR,,0.00,WeatherDisplay:10.37,2013-10-09 03:25:00,
2013-10-08 23:30:00,51.4,45.8,30.10,ESE,112,3.5,3.5,81,0.00,CLR,,0.00,WeatherDisplay:10.37,2013-10-09 03:30:00,
2013-10-08 23:35:00,51.3,45.7,30.10,SE,135,3.5,3.5,81,0.00,CLR,,0.00,WeatherDisplay:10.37,2013-10-09 03:35:00,
2013-10-08 23:40:00,51.1,45.8,30.10,ESE,112,2.7,2.7,82,0.00,CLR,,0.00,WeatherDisplay:10.37,2013-10-09 03:40:00,
2013-10-08 23:45:00,50.7,45.7,30.10,ESE,112,3.5,3.5,83,0.00,CLR,,0.00,WeatherDisplay:10.37,2013-10-09 03:45:00,
2013-10-08 23:50:00,50.4,45.4,30.10,ESE,112,2.3,2.3,83,0.00,CLR,,0.00,WeatherDisplay:10.37,2013-10-09 03:50:00,
2013-10-08 23:55:00,50.0,45.4,30.10,ESE,112,2.3,2.3,84,0.00,CLR,,0.00,WeatherDisplay:10.37,2013-10-09 03:55:00,